| time (UTC) | temp F | wind direction | speed MPH | gust MPH | rain 1hr in | rain 24hr in | rain mn in | humidity % | barometer mb |
| 20260503020606 | 75 | 354 | 2.0 | 6.0 | 0.00 | 0.00 | 0.00 | 31 | 1010.5 |
| 20260503015559 | 76 | 351 | 2.0 | 6.0 | 0.00 | 0.00 | 0.00 | 30 | 1010.5 |
| 20260503015057 | 76 | 359 | 2.0 | 6.0 | 0.00 | 0.00 | 0.00 | 29 | 1010.5 |
| 20260503014552 | 76 | 348 | 2.0 | 5.0 | 0.00 | 0.00 | 0.00 | 29 | 1010.5 |
| 20260503014050 | 76 | 356 | 2.0 | 5.0 | 0.00 | 0.00 | 0.00 | 29 | 1010.8 |
| 20260503013547 | 77 | 348 | 2.0 | 5.0 | 0.00 | 0.00 | 0.00 | 28 | 1010.8 |
| 20260503013045 | 77 | 10 | 2.0 | 5.0 | 0.00 | 0.00 | 0.00 | 28 | 1010.8 |
| 20260503012542 | 77 | 4 | 3.0 | 7.0 | 0.00 | 0.00 | 0.00 | 27 | 1010.8 |
| 20260503012038 | 77 | 343 | 3.0 | 8.0 | 0.00 | 0.00 | 0.00 | 27 | 1010.8 |
| 20260503011535 | 77 | 311 | 3.0 | 8.0 | 0.00 | 0.00 | 0.00 | 27 | 1010.8 |
| 20260503011033 | 77 | 343 | 3.0 | 8.0 | 0.00 | 0.00 | 0.00 | 26 | 1010.8 |
| 20260503010529 | 78 | 0 | 4.0 | 8.0 | 0.00 | 0.00 | 0.00 | 26 | 1010.8 |
| 20260503010027 | 78 | 348 | 4.0 | 9.0 | 0.00 | 0.00 | 0.00 | 25 | 1010.8 |
| 20260503005523 | 78 | 343 | 4.0 | 8.0 | 0.00 | 0.00 | 0.00 | 24 | 1010.8 |
| 20260503005021 | 78 | 7 | 4.0 | 8.0 | 0.00 | 0.00 | 0.00 | 24 | 1010.8 |
| 20260503004516 | 78 | 6 | 3.0 | 7.0 | 0.00 | 0.00 | 0.00 | 24 | 1010.8 |
| 20260503004015 | 78 | 350 | 3.0 | 7.0 | 0.00 | 0.00 | 0.00 | 23 | 1010.8 |
| 20260503003511 | 78 | 352 | 3.0 | 8.0 | 0.00 | 0.00 | 0.00 | 22 | 1010.8 |
| 20260503003009 | 78 | 328 | 3.0 | 8.0 | 0.00 | 0.00 | 0.00 | 20 | 1010.8 |
| 20260503002506 | 78 | 2 | 1.0 | 6.0 | 0.00 | 0.00 | 0.00 | 20 | 1010.8 |
| 20260503002002 | 78 | 19 | 0.0 | 2.0 | 0.00 | 0.00 | 0.00 | 20 | 1010.8 |
| 20260503001458 | 78 | 3 | 0.0 | 0.0 | 0.00 | 0.00 | 0.00 | 20 | 1010.8 |
| 20260503000956 | 78 | 334 | 1.0 | 5.0 | 0.00 | 0.00 | 0.00 | 19 | 1011.2 |
| 20260503000453 | 78 | 334 | 2.0 | 5.0 | 0.00 | 0.00 | 0.00 | 19 | 1010.8 |
| 20260502235950 | 78 | 347 | 2.0 | 5.0 | 0.00 | 0.00 | 0.00 | 19 | 1011.2 |
| 20260502235447 | 78 | 356 | 2.0 | 5.0 | 0.00 | 0.00 | 0.00 | 20 | 1011.2 |
| 20260502234944 | 78 | 4 | 2.0 | 5.0 | 0.00 | 0.00 | 0.00 | 20 | 1011.2 |
| 20260502234441 | 78 | 15 | 2.0 | 5.0 | 0.00 | 0.00 | 0.00 | 19 | 1011.2 |
| 20260502233938 | 78 | 22 | 2.0 | 8.0 | 0.00 | 0.00 | 0.00 | 19 | 1011.2 |
| 20260502233433 | 78 | 345 | 2.0 | 8.0 | 0.00 | 0.00 | 0.00 | 20 | 1011.2 |
| 20260502232930 | 78 | 348 | 1.0 | 7.0 | 0.00 | 0.00 | 0.00 | 21 | 1011.2 |
| 20260502232427 | 78 | 344 | 3.0 | 9.0 | 0.00 | 0.00 | 0.00 | 20 | 1011.2 |
| 20260502231924 | 78 | 59 | 3.0 | 9.0 | 0.00 | 0.00 | 0.00 | 21 | 1011.2 |
| 20260502231421 | 78 | 345 | 2.0 | 7.0 | 0.00 | 0.00 | 0.00 | 20 | 1011.2 |
| 20260502230919 | 79 | 17 | 1.0 | 4.0 | 0.00 | 0.00 | 0.00 | 20 | 1011.2 |
| 20260502230417 | 78 | 16 | 2.0 | 8.0 | 0.00 | 0.00 | 0.00 | 20 | 1011.5 |
| 20260502225915 | 78 | 85 | 1.0 | 8.0 | 0.00 | 0.00 | 0.00 | 20 | 1011.5 |
| 20260502225411 | 78 | 357 | 1.0 | 3.0 | 0.00 | 0.00 | 0.00 | 21 | 1011.5 |
| 20260502224908 | 78 | 171 | 1.0 | 3.0 | 0.00 | 0.00 | 0.00 | 19 | 1011.5 |
| 20260502224403 | 78 | 223 | 1.0 | 4.0 | 0.00 | 0.00 | 0.00 | 20 | 1011.5 |
| 20260502223901 | 78 | 326 | 2.0 | 6.0 | 0.00 | 0.00 | 0.00 | 19 | 1011.5 |
| 20260502223359 | 78 | 150 | 2.0 | 6.0 | 0.00 | 0.00 | 0.00 | 19 | 1011.5 |
| 20260502222856 | 78 | 135 | 2.0 | 6.0 | 0.00 | 0.00 | 0.00 | 20 | 1011.9 |
| 20260502222354 | 79 | 135 | 2.0 | 7.0 | 0.00 | 0.00 | 0.00 | 22 | 1011.9 |
| 20260502221849 | 79 | 147 | 3.0 | 7.0 | 0.00 | 0.00 | 0.00 | 19 | 1011.9 |
| 20260502221346 | 79 | 104 | 2.0 | 6.0 | 0.00 | 0.00 | 0.00 | 23 | 1011.9 |
| 20260502220843 | 78 | 208 | 2.0 | 5.0 | 0.00 | 0.00 | 0.00 | 20 | 1011.9 |
| 20260502220339 | 78 | 255 | 2.0 | 8.0 | 0.00 | 0.00 | 0.00 | 22 | 1012.3 |
| 20260502215835 | 79 | 358 | 2.0 | 8.0 | 0.00 | 0.00 | 0.00 | 19 | 1012.3 |
| 20260502215333 | 78 | 119 | 3.0 | 7.0 | 0.00 | 0.00 | 0.00 | 19 | 1012.3 |
| 20260502214830 | 79 | 0 | 3.0 | 7.0 | 0.00 | 0.00 | 0.00 | 18 | 1012.3 |
| 20260502214326 | 79 | 218 | 2.0 | 6.0 | 0.00 | 0.00 | 0.00 | 19 | 1012.3 |
| 20260502213824 | 79 | 115 | 2.0 | 7.0 | 0.00 | 0.00 | 0.00 | 21 | 1012.3 |
| 20260502213321 | 79 | 107 | 2.0 | 7.0 | 0.00 | 0.00 | 0.00 | 21 | 1012.3 |
| 20260502212820 | 79 | 87 | 2.0 | 7.0 | 0.00 | 0.00 | 0.00 | 20 | 1012.6 |
| 20260502212318 | 79 | 163 | 2.0 | 4.0 | 0.00 | 0.00 | 0.00 | 21 | 1012.6 |
| 20260502211815 | 79 | 174 | 1.0 | 5.0 | 0.00 | 0.00 | 0.00 | 22 | 1012.6 |
| 20260502211310 | 79 | 281 | 2.0 | 5.0 | 0.00 | 0.00 | 0.00 | 21 | 1012.6 |
| 20260502210808 | 79 | 176 | 2.0 | 5.0 | 0.00 | 0.00 | 0.00 | 23 | 1012.9 |
| 20260502210305 | 79 | 25 | 2.0 | 7.0 | 0.00 | 0.00 | 0.00 | 22 | 1012.9 |
| 20260502205802 | 78 | 94 | 2.0 | 7.0 | 0.00 | 0.00 | 0.00 | 22 | 1012.9 |
| 20260502205258 | 78 | 67 | 2.0 | 7.0 | 0.00 | 0.00 | 0.00 | 23 | 1012.9 |
| 20260502204755 | 78 | 7 | 2.0 | 8.0 | 0.00 | 0.00 | 0.00 | 25 | 1012.9 |
| 20260502204252 | 79 | 84 | 2.0 | 8.0 | 0.00 | 0.00 | 0.00 | 24 | 1012.9 |
| 20260502203750 | 79 | 106 | 2.0 | 6.0 | 0.00 | 0.00 | 0.00 | 27 | 1012.9 |
| 20260502203248 | 78 | 79 | 2.0 | 6.0 | 0.00 | 0.00 | 0.00 | 29 | 1012.9 |
| 20260502202742 | 78 | 134 | 1.0 | 6.0 | 0.00 | 0.00 | 0.00 | 26 | 1012.9 |
| 20260502202240 | 78 | 86 | 1.0 | 4.0 | 0.00 | 0.00 | 0.00 | 27 | 1013.4 |
| 20260502201738 | 77 | 291 | 1.0 | 5.0 | 0.00 | 0.00 | 0.00 | 27 | 1013.4 |
| 20260502201234 | 77 | 189 | 1.0 | 5.0 | 0.00 | 0.00 | 0.00 | 30 | 1013.4 |
| 20260502200730 | 77 | 172 | 1.0 | 5.0 | 0.00 | 0.00 | 0.00 | 30 | 1013.7 |
| 20260502200226 | 77 | 272 | 1.0 | 3.0 | 0.00 | 0.00 | 0.00 | 30 | 1013.7 |
| 20260502195725 | 77 | 86 | 1.0 | 3.0 | 0.00 | 0.00 | 0.00 | 31 | 1013.7 |
| 20260502195221 | 75 | 8 | 1.0 | 5.0 | 0.00 | 0.00 | 0.00 | 32 | 1013.7 |
| 20260502194717 | 75 | 356 | 1.0 | 4.0 | 0.00 | 0.00 | 0.00 | 32 | 1014.1 |
| 20260502194215 | 75 | 189 | 0.0 | 4.0 | 0.00 | 0.00 | 0.00 | 31 | 1014.1 |
| 20260502193710 | 73 | 156 | 0.0 | 2.0 | 0.00 | 0.00 | 0.00 | 35 | 1014.1 |
| 20260502193209 | 73 | 337 | 1.0 | 3.0 | 0.00 | 0.00 | 0.00 | 37 | 1014.1 |
| 20260502192703 | 73 | 329 | 1.0 | 3.0 | 0.00 | 0.00 | 0.00 | 34 | 1014.5 |
| 20260502192201 | 73 | 335 | 1.0 | 4.0 | 0.00 | 0.00 | 0.00 | 35 | 1014.5 |
| 20260502191657 | 74 | 324 | 1.0 | 4.0 | 0.00 | 0.00 | 0.00 | 34 | 1014.5 |
| 20260502191155 | 74 | 349 | 2.0 | 7.0 | 0.00 | 0.00 | 0.00 | 38 | 1014.5 |
| 20260502190652 | 73 | 6 | 1.0 | 7.0 | 0.00 | 0.00 | 0.00 | 37 | 1014.5 |
| 20260502190150 | 72 | 204 | 1.0 | 3.0 | 0.00 | 0.00 | 0.00 | 39 | 1014.5 |
| 20260502185644 | 72 | 6 | 1.0 | 4.0 | 0.00 | 0.00 | 0.00 | 38 | 1014.8 |
| 20260502185141 | 71 | 329 | 1.0 | 4.0 | 0.00 | 0.00 | 0.00 | 39 | 1014.8 |
| 20260502184637 | 70 | 126 | 1.0 | 5.0 | 0.00 | 0.00 | 0.00 | 37 | 1014.8 |
| 20260502184133 | 70 | 5 | 1.0 | 5.0 | 0.00 | 0.00 | 0.00 | 39 | 1014.8 |
| 20260502183630 | 71 | 152 | 1.0 | 3.0 | 0.00 | 0.00 | 0.00 | 39 | 1014.8 |
| 20260502183126 | 71 | 20 | 1.0 | 5.0 | 0.00 | 0.00 | 0.00 | 39 | 1015.2 |
| 20260502182621 | 71 | 323 | 1.0 | 5.0 | 0.00 | 0.00 | 0.00 | 40 | 1015.2 |
| 20260502182117 | 70 | 350 | 3.0 | 8.0 | 0.00 | 0.00 | 0.00 | 40 | 1015.2 |
| 20260502181615 | 69 | 331 | 2.0 | 8.0 | 0.00 | 0.00 | 0.00 | 41 | 1015.5 |
| 20260502181114 | 69 | 346 | 2.0 | 7.0 | 0.00 | 0.00 | 0.00 | 47 | 1015.5 |
| 20260502180610 | 68 | 69 | 2.0 | 7.0 | 0.00 | 0.00 | 0.00 | 42 | 1015.5 |
| 20260502180108 | 68 | 351 | 3.0 | 8.0 | 0.00 | 0.00 | 0.00 | 42 | 1015.5 |
| 20260502164013 | 61 | 160 | 1.0 | 5.0 | 0.00 | 0.00 | 0.00 | 52 | 1016.3 |
| 20260502163509 | 60 | 197 | 1.0 | 5.0 | 0.00 | 0.00 | 0.00 | 53 | 1016.3 |
| 20260502163006 | 60 | 336 | 2.0 | 5.0 | 0.00 | 0.00 | 0.00 | 57 | 1016.0 |
| 20260502162503 | 59 | 331 | 1.0 | 5.0 | 0.00 | 0.00 | 0.00 | 58 | 1016.0 |
| 20260502162000 | 57 | 339 | 1.0 | 3.0 | 0.00 | 0.00 | 0.00 | 65 | 1016.3 |
| 20260502161456 | 56 | 343 | 1.0 | 3.0 | 0.00 | 0.00 | 0.00 | 64 | 1016.0 |
| 20260502160955 | 55 | 325 | 1.0 | 2.0 | 0.00 | 0.00 | 0.00 | 63 | 1016.0 |
| 20260502160452 | 53 | 327 | 1.0 | 4.0 | 0.00 | 0.00 | 0.00 | 66 | 1016.0 |
| 20260502151941 | 47 | 344 | 3.0 | 7.0 | 0.00 | 0.00 | 0.00 | 80 | 1016.0 |
| 20260502151438 | 47 | 354 | 3.0 | 7.0 | 0.00 | 0.00 | 0.00 | 84 | 1016.0 |
| 20260502150935 | 46 | 323 | 3.0 | 6.0 | 0.00 | 0.00 | 0.00 | 86 | 1016.0 |
| 20260502150432 | 46 | 4 | 2.0 | 6.0 | 0.00 | 0.00 | 0.00 | 88 | 1016.0 |
| 20260502130318 | 41 | 77 | 0.0 | 0.0 | 0.00 | 0.00 | 0.00 | 86 | 1015.2 |
| 20260502123803 | 42 | 159 | 0.0 | 0.0 | 0.00 | 0.00 | 0.00 | 85 | 1014.8 |
| 20260502123300 | 42 | 159 | 0.0 | 0.0 | 0.00 | 0.00 | 0.00 | 84 | 1014.8 |
| 20260502122757 | 42 | 159 | 0.0 | 0.0 | 0.00 | 0.00 | 0.00 | 84 | 1014.8 |
| 20260502122253 | 42 | 159 | 0.0 | 0.0 | 0.00 | 0.00 | 0.00 | 83 | 1014.8 |
| 20260502121751 | 42 | 159 | 0.0 | 0.0 | 0.00 | 0.00 | 0.00 | 83 | 1014.8 |
| 20260502121249 | 42 | 159 | 0.0 | 0.0 | 0.00 | 0.00 | 0.00 | 83 | 1014.8 |
| 20260502120745 | 42 | 159 | 0.0 | 0.0 | 0.00 | 0.00 | 0.00 | 83 | 1014.8 |
| 20260502120242 | 43 | 159 | 0.0 | 0.0 | 0.00 | 0.00 | 0.00 | 82 | 1014.8 |
| 20260502115740 | 43 | 159 | 0.0 | 0.0 | 0.00 | 0.00 | 0.00 | 82 | 1014.8 |
| 20260502115237 | 43 | 159 | 0.0 | 0.0 | 0.00 | 0.00 | 0.00 | 82 | 1014.8 |
| 20260502114732 | 43 | 159 | 0.0 | 0.0 | 0.00 | 0.00 | 0.00 | 82 | 1015.2 |
| 20260502114230 | 44 | 159 | 0.0 | 0.0 | 0.00 | 0.00 | 0.00 | 81 | 1015.2 |
| 20260502113727 | 44 | 159 | 0.0 | 0.0 | 0.00 | 0.00 | 0.00 | 82 | 1015.2 |
| 20260502113224 | 44 | 159 | 0.0 | 0.0 | 0.00 | 0.00 | 0.00 | 82 | 1014.8 |
| 20260502112722 | 44 | 159 | 0.0 | 0.0 | 0.00 | 0.00 | 0.00 | 82 | 1014.8 |
| 20260502112220 | 45 | 159 | 0.0 | 0.0 | 0.00 | 0.00 | 0.00 | 83 | 1014.8 |
| 20260502111717 | 45 | 159 | 0.0 | 0.0 | 0.00 | 0.00 | 0.00 | 83 | 1014.8 |
| 20260502111214 | 45 | 159 | 0.0 | 0.0 | 0.00 | 0.00 | 0.00 | 84 | 1015.2 |
| 20260502110712 | 46 | 159 | 0.0 | 0.0 | 0.00 | 0.00 | 0.00 | 85 | 1015.2 |
| 20260502110209 | 45 | 159 | 0.0 | 0.0 | 0.00 | 0.00 | 0.00 | 83 | 1015.2 |
| 20260502105707 | 44 | 159 | 0.0 | 0.0 | 0.00 | 0.00 | 0.00 | 80 | 1015.2 |
| 20260502105203 | 44 | 159 | 0.0 | 0.0 | 0.00 | 0.00 | 0.00 | 76 | 1015.2 |
| 20260502104701 | 44 | 159 | 0.0 | 0.0 | 0.00 | 0.00 | 0.00 | 75 | 1015.2 |
| 20260502104158 | 44 | 159 | 0.0 | 0.0 | 0.00 | 0.00 | 0.00 | 74 | 1015.2 |
| 20260502103655 | 44 | 159 | 0.0 | 0.0 | 0.00 | 0.00 | 0.00 | 74 | 1015.2 |
| 20260502103153 | 44 | 159 | 0.0 | 0.0 | 0.00 | 0.00 | 0.00 | 73 | 1015.2 |
| 20260502102650 | 44 | 159 | 0.0 | 0.0 | 0.00 | 0.00 | 0.00 | 73 | 1015.2 |
| 20260502102147 | 44 | 159 | 0.0 | 0.0 | 0.00 | 0.00 | 0.00 | 73 | 1015.2 |
| 20260502101645 | 44 | 159 | 0.0 | 0.0 | 0.00 | 0.00 | 0.00 | 72 | 1015.2 |
| 20260502101143 | 44 | 159 | 0.0 | 0.0 | 0.00 | 0.00 | 0.00 | 72 | 1015.2 |
| 20260502100641 | 45 | 159 | 0.0 | 0.0 | 0.00 | 0.00 | 0.00 | 72 | 1015.2 |
| 20260502100139 | 45 | 159 | 0.0 | 0.0 | 0.00 | 0.00 | 0.00 | 72 | 1014.8 |
| 20260502091113 | 46 | 159 | 0.0 | 0.0 | 0.00 | 0.00 | 0.00 | 67 | 1015.2 |
| 20260502090610 | 46 | 159 | 0.0 | 0.0 | 0.00 | 0.00 | 0.00 | 66 | 1015.2 |
| 20260502090107 | 46 | 159 | 0.0 | 0.0 | 0.00 | 0.00 | 0.00 | 65 | 1015.2 |
| 20260502071504 | 50 | 98 | 0.0 | 0.0 | 0.00 | 0.00 | 0.00 | 58 | 1015.2 |
| 20260502071003 | 50 | 98 | 0.0 | 0.0 | 0.00 | 0.00 | 0.00 | 58 | 1015.2 |
| 20260502070500 | 50 | 98 | 0.0 | 0.0 | 0.00 | 0.00 | 0.00 | 57 | 1015.5 |
| 20260502065958 | 50 | 98 | 0.0 | 1.0 | 0.00 | 0.00 | 0.00 | 56 | 1015.2 |
| 20260502065456 | 51 | 98 | 0.0 | 1.0 | 0.00 | 0.00 | 0.00 | 56 | 1015.5 |
| 20260502064954 | 51 | 98 | 0.0 | 1.0 | 0.00 | 0.00 | 0.00 | 56 | 1015.5 |
| 20260502064452 | 51 | 98 | 0.0 | 1.0 | 0.00 | 0.00 | 0.00 | 55 | 1015.5 |
| 20260502063949 | 51 | 98 | 0.0 | 1.0 | 0.00 | 0.00 | 0.00 | 54 | 1015.5 |
| 20260502063447 | 51 | 98 | 0.0 | 1.0 | 0.00 | 0.00 | 0.00 | 54 | 1015.5 |
| 20260502062944 | 52 | 98 | 0.0 | 0.0 | 0.00 | 0.00 | 0.00 | 53 | 1015.5 |
| 20260502062441 | 52 | 98 | 0.0 | 0.0 | 0.00 | 0.00 | 0.00 | 53 | 1015.5 |
| 20260502061940 | 52 | 98 | 0.0 | 0.0 | 0.00 | 0.00 | 0.00 | 53 | 1015.5 |
| 20260502061437 | 53 | 98 | 0.0 | 0.0 | 0.00 | 0.00 | 0.00 | 52 | 1015.2 |
| 20260502060933 | 53 | 98 | 0.0 | 0.0 | 0.00 | 0.00 | 0.00 | 51 | 1015.2 |
| 20260502060428 | 53 | 98 | 0.0 | 1.0 | 0.00 | 0.00 | 0.00 | 51 | 1015.2 |
| 20260502055925 | 53 | 98 | 0.0 | 1.0 | 0.00 | 0.00 | 0.00 | 50 | 1015.2 |
| 20260502055424 | 53 | 98 | 0.0 | 0.0 | 0.00 | 0.00 | 0.00 | 50 | 1015.5 |
| 20260502054923 | 54 | 98 | 0.0 | 1.0 | 0.00 | 0.00 | 0.00 | 49 | 1015.2 |
| 20260502054420 | 54 | 98 | 0.0 | 1.0 | 0.00 | 0.00 | 0.00 | 49 | 1015.5 |
| 20260502053918 | 54 | 98 | 0.0 | 2.0 | 0.00 | 0.00 | 0.00 | 48 | 1015.2 |
| 20260502053415 | 55 | 98 | 0.0 | 2.0 | 0.00 | 0.00 | 0.00 | 48 | 1015.5 |
| 20260502052912 | 55 | 98 | 0.0 | 2.0 | 0.00 | 0.00 | 0.00 | 47 | 1015.2 |
| 20260502052411 | 55 | 100 | 0.0 | 2.0 | 0.00 | 0.00 | 0.00 | 47 | 1015.2 |
| 20260502051908 | 55 | 100 | 0.0 | 2.0 | 0.00 | 0.00 | 0.00 | 47 | 1015.5 |
| 20260502051406 | 56 | 96 | 0.0 | 1.0 | 0.00 | 0.00 | 0.00 | 47 | 1015.2 |
| 20260502050903 | 56 | 96 | 0.0 | 1.0 | 0.00 | 0.00 | 0.00 | 47 | 1015.5 |
| 20260502050359 | 56 | 96 | 0.0 | 2.0 | 0.00 | 0.00 | 0.00 | 46 | 1015.5 |
| 20260502045856 | 56 | 96 | 1.0 | 5.0 | 0.00 | 0.00 | 0.00 | 45 | 1015.5 |
| 20260502045353 | 57 | 127 | 1.0 | 5.0 | 0.00 | 0.00 | 0.00 | 46 | 1015.5 |
| 20260502044850 | 57 | 97 | 0.0 | 2.0 | 0.00 | 0.00 | 0.00 | 47 | 1015.2 |
| 20260502044346 | 57 | 113 | 1.0 | 2.0 | 0.00 | 0.00 | 0.00 | 47 | 1015.5 |
| 20260502043843 | 57 | 115 | 0.0 | 2.0 | 0.00 | 0.00 | 0.00 | 47 | 1015.5 |
| 20260502043341 | 58 | 87 | 0.0 | 2.0 | 0.00 | 0.00 | 0.00 | 47 | 1015.5 |
| 20260502042840 | 58 | 87 | 1.0 | 3.0 | 0.00 | 0.00 | 0.00 | 46 | 1015.5 |
| 20260502042338 | 59 | 85 | 1.0 | 3.0 | 0.00 | 0.00 | 0.00 | 46 | 1015.5 |
| 20260502041835 | 59 | 65 | 0.0 | 2.0 | 0.00 | 0.00 | 0.00 | 46 | 1015.5 |
| 20260502041332 | 60 | 357 | 0.0 | 0.0 | 0.00 | 0.00 | 0.00 | 46 | 1015.5 |
| 20260502040829 | 60 | 346 | 0.0 | 0.0 | 0.00 | 0.00 | 0.00 | 45 | 1015.2 |
| 20260502040326 | 61 | 346 | 0.0 | 0.0 | 0.00 | 0.00 | 0.00 | 44 | 1015.2 |
| 20260502035822 | 61 | 346 | 0.0 | 0.0 | 0.00 | 0.00 | 0.00 | 44 | 1015.2 |
| 20260502035319 | 62 | 346 | 0.0 | 2.0 | 0.00 | 0.00 | 0.00 | 43 | 1015.2 |
| 20260502034816 | 62 | 346 | 0.0 | 2.0 | 0.00 | 0.00 | 0.00 | 42 | 1015.2 |
| 20260502034315 | 63 | 346 | 0.0 | 0.0 | 0.00 | 0.00 | 0.00 | 41 | 1015.2 |
| 20260502033813 | 64 | 346 | 0.0 | 1.0 | 0.00 | 0.00 | 0.00 | 41 | 1015.2 |
| 20260502033310 | 64 | 346 | 0.0 | 1.0 | 0.00 | 0.00 | 0.00 | 40 | 1015.2 |
| 20260502032807 | 65 | 346 | 0.0 | 1.0 | 0.00 | 0.00 | 0.00 | 39 | 1015.2 |
| 20260502032305 | 66 | 345 | 1.0 | 2.0 | 0.00 | 0.00 | 0.00 | 37 | 1015.2 |
| 20260502031800 | 66 | 345 | 1.0 | 3.0 | 0.00 | 0.00 | 0.00 | 37 | 1014.8 |
| 20260502031258 | 67 | 352 | 2.0 | 3.0 | 0.00 | 0.00 | 0.00 | 35 | 1014.8 |
| 20260502030757 | 67 | 4 | 2.0 | 3.0 | 0.00 | 0.00 | 0.00 | 34 | 1014.8 |
| 20260502030254 | 67 | 358 | 2.0 | 3.0 | 0.00 | 0.00 | 0.00 | 33 | 1014.8 |
| 20260502025751 | 68 | 8 | 2.0 | 5.0 | 0.00 | 0.00 | 0.00 | 32 | 1014.8 |
| 20260502025249 | 68 | 333 | 2.0 | 5.0 | 0.00 | 0.00 | 0.00 | 31 | 1014.8 |
| 20260502024747 | 68 | 359 | 2.0 | 3.0 | 0.00 | 0.00 | 0.00 | 30 | 1014.8 |
| 20260502024244 | 69 | 358 | 2.0 | 3.0 | 0.00 | 0.00 | 0.00 | 29 | 1014.8 |
| 20260502023742 | 69 | 349 | 1.0 | 3.0 | 0.00 | 0.00 | 0.00 | 29 | 1014.8 |
| 20260502023240 | 69 | 353 | 1.0 | 3.0 | 0.00 | 0.00 | 0.00 | 29 | 1014.5 |
| 20260502022737 | 70 | 4 | 1.0 | 2.0 | 0.00 | 0.00 | 0.00 | 27 | 1014.8 |
| 20260502022233 | 70 | 4 | 1.0 | 2.0 | 0.00 | 0.00 | 0.00 | 27 | 1014.5 |
| 20260502021730 | 71 | 52 | 0.0 | 2.0 | 0.00 | 0.00 | 0.00 | 25 | 1014.5 |
| 20260502021228 | 71 | 93 | 0.0 | 1.0 | 0.00 | 0.00 | 0.00 | 25 | 1014.5 |